Tiempo cada hora Bartne

Hoy, 7 Marzo, Domingo

Tiempo Temperatura Precipitaciones Viento Presión Humedad
00:00 -5°C° 0 mm 2 mps 726 mmHg 72%
01:00 -4°C° 0 mm 2 mps 725 mmHg 66%
02:00 -4°C° 0 mm 2 mps 725 mmHg 66%
03:00 -4°C° 0 mm 2 mps 724 mmHg 65%
04:00 -5°C° 0 mm 3 mps 724 mmHg 64%
05:00 -5°C° 0 mm 3 mps 723 mmHg 64%
06:00 -5°C° 0 mm 3 mps 723 mmHg 63%
07:00 -5°C° 0 mm 3 mps 723 mmHg 63%
08:00 -4°C° 0 mm 3 mps 723 mmHg 58%
09:00 -1°C° 0 mm 3 mps 722 mmHg 52%
10:00 -1°C° 0 mm 4 mps 722 mmHg 46%
11:00 0°C° 0 mm 4 mps 722 mmHg 44%
12:00 +1°C° 0 mm 4 mps 721 mmHg 42%
13:00 +3°C° 0 mm 4 mps 720 mmHg 40%
14:00 +3°C° 0 mm 3 mps 720 mmHg 43%
15:00 +3°C° 0 mm 3 mps 719 mmHg 46%
16:00 +3°C° 0 mm 2 mps 719 mmHg 49%
17:00 +2°C° 0 mm 2 mps 718 mmHg 54%
18:00 -1°C° 0 mm 2 mps 718 mmHg 59%
19:00 0°C° 0 mm 1 mps 718 mmHg 65%
20:00 -3°C° 0 mm 2 mps 718 mmHg 65%
21:00 -3°C° 0 mm 2 mps 718 mmHg 66%
22:00 -3°C° 0 mm 2 mps 718 mmHg 66%
23:00 -3°C° 0 mm 2 mps 717 mmHg 70%

Mañana, 8 Marzo, Lunes

Tiempo Temperatura Precipitaciones Viento Presión Humedad
00:00 -3°C° 0 mm 2 mps 717 mmHg 73%
01:00 -3°C° 0 mm 2 mps 717 mmHg 77%
02:00 -4°C° 0 mm 2 mps 717 mmHg 79%
03:00 -4°C° 0 mm 2 mps 717 mmHg 82%
04:00 -4°C° 0 mm 2 mps 717 mmHg 85%
05:00 -4°C° 0.1 mm 2 mps 717 mmHg 86%
06:00 -3°C° 0.1 mm 2 mps 717 mmHg 87%
07:00 -4°C° 0.1 mm 3 mps 717 mmHg 89%
08:00 -4°C° 0.3 mm 3 mps 717 mmHg 85%
09:00 -2°C° 0.3 mm 3 mps 718 mmHg 81%
10:00 -2°C° 0.3 mm 4 mps 718 mmHg 78%
11:00 -2°C° 0.1 mm 4 mps 718 mmHg 69%
12:00 -2°C° 0.1 mm 4 mps 719 mmHg 61%
13:00 -1°C° 0.1 mm 4 mps 719 mmHg 53%
14:00 -2°C° 0 mm 4 mps 719 mmHg 54%
15:00 -2°C° 0 mm 4 mps 719 mmHg 55%
16:00 -2°C° 0 mm 4 mps 719 mmHg 56%
17:00 -2°C° 0 mm 3 mps 719 mmHg 62%
18:00 -3°C° 0 mm 2 mps 720 mmHg 68%
19:00 -4°C° 0 mm 2 mps 720 mmHg 75%
20:00 -3°C° 0 mm 1 mps 720 mmHg 76%
21:00 -3°C° 0 mm 1 mps 720 mmHg 77%
22:00 -3°C° 0 mm 1 mps 721 mmHg 79%
23:00 -3°C° 0 mm 1 mps 721 mmHg 79%

Pasado mañana, 9 Marzo, Martes

Tiempo Temperatura Precipitaciones Viento Presión Humedad
00:00 -3°C° 0 mm 1 mps 721 mmHg 80%
01:00 -3°C° 0 mm 1 mps 721 mmHg 81%
02:00 -4°C° 0 mm 0 mps 720 mmHg 81%
03:00 -4°C° 0 mm 0 mps 720 mmHg 81%
04:00 -5°C° 0 mm 0 mps 720 mmHg 81%
05:00 -4°C° 0 mm 0 mps 720 mmHg 80%
06:00 -4°C° 0 mm 0 mps 721 mmHg 78%
07:00 -4°C° 0 mm 0 mps 721 mmHg 77%
08:00 -3°C° 0 mm 0 mps 721 mmHg 69%
09:00 -1°C° 0 mm 0 mps 721 mmHg 61%
10:00 0°C° 0 mm 0 mps 721 mmHg 53%
11:00 +1°C° 0 mm 0 mps 721 mmHg 50%
12:00 +1°C° 0 mm 0 mps 721 mmHg 46%
13:00 +2°C° 0 mm 0 mps 721 mmHg 43%
14:00 +2°C° 0 mm 1 mps 720 mmHg 46%
15:00 +2°C° 0 mm 1 mps 720 mmHg 48%
16:00 +1°C° 0 mm 1 mps 719 mmHg 51%
17:00 0°C° 0 mm 1 mps 720 mmHg 57%
18:00 -1°C° 0 mm 1 mps 720 mmHg 63%
19:00 -2°C° 0 mm 1 mps 720 mmHg 70%
20:00 -2°C° 0 mm 1 mps 720 mmHg 71%
21:00 -2°C° 0 mm 1 mps 720 mmHg 72%
22:00 -3°C° 0 mm 0 mps 720 mmHg 74%
23:00 -3°C° 0 mm 0 mps 720 mmHg 73%

10 Marzo, Miércoles

Tiempo Temperatura Precipitaciones Viento Presión Humedad
00:00 -3°C° 0 mm 0 mps 720 mmHg 72%
01:00 -3°C° 0 mm 0 mps 719 mmHg 72%
02:00 -3°C° 0 mm 0 mps 719 mmHg 72%
03:00 -3°C° 0 mm 0 mps 719 mmHg 72%
04:00 -2°C° 0 mm 1 mps 719 mmHg 72%
05:00 -2°C° 0 mm 1 mps 719 mmHg 72%
06:00 -2°C° 0 mm 1 mps 719 mmHg 71%
07:00 -2°C° 0 mm 1 mps 720 mmHg 71%
08:00 -3°C° 0 mm 2 mps 720 mmHg 65%
09:00 -2°C° 0 mm 2 mps 720 mmHg 60%
10:00 -1°C° 0 mm 3 mps 721 mmHg 54%
11:00 -1°C° 0 mm 3 mps 721 mmHg 52%
12:00 0°C° 0 mm 3 mps 721 mmHg 50%
13:00 +1°C° 0 mm 2 mps 721 mmHg 48%
14:00 +1°C° 0 mm 2 mps 721 mmHg 50%
15:00 +1°C° 0 mm 2 mps 721 mmHg 52%
16:00 +1°C° 0 mm 2 mps 721 mmHg 54%
17:00 -2°C° 0 mm 2 mps 721 mmHg 60%
18:00 -1°C° 0 mm 1 mps 721 mmHg 65%
19:00 -2°C° 0 mm 1 mps 722 mmHg 71%
20:00 -2°C° 0 mm 1 mps 722 mmHg 71%
21:00 -3°C° 0 mm 0 mps 722 mmHg 71%
22:00 -3°C° 0 mm 0 mps 722 mmHg 71%
23:00 -3°C° 0 mm 0 mps 722 mmHg 71%

11 Marzo, Jueves

Tiempo Temperatura Precipitaciones Viento Presión Humedad
00:00 -3°C° 0 mm 0 mps 722 mmHg 71%
01:00 -3°C° 0 mm 0 mps 722 mmHg 72%
02:00 -3°C° 0 mm 1 mps 722 mmHg 72%
03:00 -3°C° 0 mm 1 mps 721 mmHg 72%
04:00 -3°C° 0 mm 1 mps 721 mmHg 72%
05:00 -5°C° 0 mm 2 mps 721 mmHg 70%
06:00 -4°C° 0 mm 2 mps 721 mmHg 68%
07:00 -4°C° 0 mm 2 mps 721 mmHg 66%
08:00 -4°C° 0 mm 3 mps 720 mmHg 62%
09:00 -2°C° 0 mm 4 mps 720 mmHg 58%
10:00 -1°C° 0 mm 5 mps 720 mmHg 53%
11:00 -1°C° 0 mm 6 mps 719 mmHg 54%
12:00 -1°C° 0 mm 6 mps 719 mmHg 55%
13:00 0°C° 0 mm 7 mps 718 mmHg 56%
14:00 0°C° 0 mm 7 mps 718 mmHg 62%
15:00 -1°C° 0 mm 7 mps 717 mmHg 69%
16:00 -1°C° 0 mm 7 mps 717 mmHg 75%
17:00 -1°C° 0 mm 7 mps 716 mmHg 78%
18:00 -1°C° 0 mm 7 mps 716 mmHg 80%
19:00 -1°C° 0 mm 7 mps 716 mmHg 83%
20:00 -1°C° 0.1 mm 7 mps 716 mmHg 84%
21:00 -1°C° 0.1 mm 7 mps 715 mmHg 86%
22:00 -1°C° 0.1 mm 6 mps 715 mmHg 87%
23:00 -1°C° 0.1 mm 6 mps 715 mmHg 87%

12 Marzo, Viernes

Tiempo Temperatura Precipitaciones Viento Presión Humedad
00:00 -2°C° 0.1 mm 6 mps 714 mmHg 87%
01:00 -2°C° 0.1 mm 6 mps 714 mmHg 87%
02:00 -2°C° 0.5 mm 6 mps 714 mmHg 89%
03:00 -1°C° 0.5 mm 5 mps 714 mmHg 90%
04:00 -2°C° 0.5 mm 5 mps 713 mmHg 92%
05:00 -1°C° 0.7 mm 4 mps 714 mmHg 93%
06:00 -1°C° 0.7 mm 4 mps 714 mmHg 94%
07:00 0°C° 0.7 mm 3 mps 714 mmHg 94%
08:00 0°C° 0.6 mm 3 mps 714 mmHg 94%
09:00 +1°C° 0.6 mm 3 mps 715 mmHg 95%
10:00 +1°C° 0.6 mm 3 mps 715 mmHg 95%
11:00 +3°C° 0.2 mm 4 mps 715 mmHg 85%
12:00 +3°C° 0.2 mm 5 mps 715 mmHg 76%
13:00 +4°C° 0.2 mm 6 mps 716 mmHg 67%
14:00 +5°C° 0.1 mm 5 mps 716 mmHg 68%
15:00 +5°C° 0.1 mm 4 mps 716 mmHg 69%
16:00 +5°C° 0.1 mm 3 mps 716 mmHg 70%
17:00 +3°C° 0 mm 3 mps 716 mmHg 75%
18:00 +2°C° 0 mm 3 mps 716 mmHg 79%
19:00 +1°C° 0 mm 2 mps 716 mmHg 83%
20:00 +1°C° 0 mm 2 mps 717 mmHg 84%
21:00 +1°C° 0 mm 2 mps 717 mmHg 85%
22:00 -1°C° 0 mm 2 mps 717 mmHg 86%
23:00 -1°C° 0 mm 2 mps 717 mmHg 88%
Mostrar más

Necesitamos Su Consentimiento

Meteoprog y nuestros Proveedores de Servicios pueden almacenar y acceder a sus datos personales como cookies, identificadores de dispositivo u otras tecnologías similares de su dispositivo y procesar dichos datos para personalizar contenido y anuncios, además de ofrecer funciones de redes sociales y analizar el tráfico.

  • Almacenar y/o acceder a información en su dispositivo

    Se puede almacenar o acceder a cookies, identificadores de dispositivo u otra información de su dispositivo para los fines anteriormente indicados.

  • Anuncios y contenido personalizados, medición de anuncios y contenido, percepciones del público, y desarrollo de productos

    Los anuncios y el contenido pueden personalizarse en base a su perfil. Se pueden añadir más datos para personalizar mejor los anuncios y contenidos. Se puede medir el rendimiento de los anuncios y contenidos. Se puede obtener la percepción sobre el público que ha visto los anuncios y contenidos. Dichos datos pueden usarse para desarrollar o mejorar la experiencia del usuario, sistemas y software.

Al hacer clic en ‘Estoy De Acuerdo’ usted permitirá el uso de las cookies, identificadores de dispositivo, balizas web u otras tecnologías similares indicadas. Su configuración puede cambiarse desde el navegador de su dispositivo.

Para ciertos fines, los intereses legítimos pueden ser considerados por encima del consentimiento. Puede leer más sobre ello en nuestra Política de Privacidad y Cookies.